TimeCDT,TemperatureF,Dew PointF,Humidity,Sea Level PressureIn,VisibilityMPH,Wind Direction,Wind SpeedMPH,Gust SpeedMPH,PrecipitationIn,Events,Conditions,WindDirDegrees,DateUTC
12:53 AM,61.0,44.1,54,29.67,10.0,West,9.2,-,N/A,,Clear,260,2012-10-14 05:53:00
1:53 AM,63.0,46.0,54,29.69,10.0,WSW,8.1,-,N/A,,Clear,250,2012-10-14 06:53:00
2:53 AM,60.1,46.0,60,29.70,10.0,West,10.4,-,N/A,,Clear,260,2012-10-14 07:53:00
3:53 AM,59.0,46.9,64,29.72,10.0,WSW,10.4,-,N/A,,Clear,250,2012-10-14 08:53:00
4:53 AM,60.1,46.9,62,29.74,10.0,West,12.7,24.2,N/A,,Clear,280,2012-10-14 09:53:00
5:53 AM,59.0,48.0,67,29.78,10.0,West,6.9,-,N/A,,Clear,280,2012-10-14 10:53:00
6:53 AM,57.9,48.0,70,29.83,10.0,NW,9.2,-,N/A,,Clear,310,2012-10-14 11:53:00
7:53 AM,57.9,46.9,67,29.87,10.0,NW,9.2,-,N/A,,Clear,320,2012-10-14 12:53:00
8:53 AM,61.0,46.9,60,29.93,10.0,NNW,11.5,21.9,N/A,,Clear,330,2012-10-14 13:53:00
9:53 AM,64.9,46.0,50,29.98,10.0,NNW,18.4,24.2,N/A,,Clear,340,2012-10-14 14:53:00
10:53 AM,70.0,43.0,38,30.01,10.0,NNW,16.1,25.3,N/A,,Clear,340,2012-10-14 15:53:00
11:53 AM,73.0,39.9,30,30.02,10.0,NW,15.0,26.5,N/A,,Clear,320,2012-10-14 16:53:00
12:53 PM,75.0,39.0,27,30.03,10.0,NNW,18.4,25.3,N/A,,Clear,340,2012-10-14 17:53:00
1:53 PM,77.0,39.0,25,30.02,10.0,NNW,17.3,21.9,N/A,,Clear,340,2012-10-14 18:53:00
2:53 PM,77.0,39.9,26,30.01,10.0,NNW,11.5,27.6,N/A,,Clear,340,2012-10-14 19:53:00
3:53 PM,78.1,39.0,25,30.01,10.0,NNW,12.7,23.0,N/A,,Clear,330,2012-10-14 20:53:00
4:53 PM,77.0,37.0,24,30.02,10.0,NNW,13.8,-,N/A,,Clear,340,2012-10-14 21:53:00
5:53 PM,75.9,39.0,26,30.02,10.0,North,9.2,-,N/A,,Clear,350,2012-10-14 22:53:00
6:53 PM,70.0,39.9,33,30.03,10.0,NNW,4.6,-,N/A,,Clear,340,2012-10-14 23:53:00
7:53 PM,64.0,41.0,43,30.04,10.0,Calm,Calm,-,N/A,,Clear,0,2012-10-15 00:53:00
8:53 PM,57.9,42.1,56,30.05,10.0,Calm,Calm,-,N/A,,Clear,0,2012-10-15 01:53:00
9:53 PM,55.0,43.0,64,30.06,10.0,Calm,Calm,-,N/A,,Clear,0,2012-10-15 02:53:00
10:53 PM,53.1,43.0,69,30.06,10.0,Calm,Calm,-,N/A,,Clear,0,2012-10-15 03:53:00
11:53 PM,52.0,42.1,69,30.06,10.0,Calm,Calm,-,N/A,,Clear,0,2012-10-15 04:53:00